Regional Weather Roundup
Issued by NWS

Home | Current Version | Previous Version | Text Only | Print | Product List | Glossary Off
Versions: 1 2 3 4 5 6 7 8 9 10 11 12 13 14 15 16 17 18 19 20 21 22 23 24 25 26 27

000
ASUS45 KBOU 270007
RWRCO

WEATHER ROUNDUP FOR COLORADO
NATIONAL WEATHER SERVICE DENVER/BOULDER CO
600 PM MDT FRI AUG 26 2016

NOTE: "FAIR" INDICATES FEW OR NO CLOUDS BELOW 12000 FEET WITH NO
SIGNIFICANT WEATHER AND/OR OBSTRUCTIONS TO VISIBILITY.

COZ001>005-013-030-031-270100-
...NORTHWEST COLORADO...

CITY           SKY/WX    TMP DP  RH WIND       PRES   REMARKS
CRAIG          LGT RAIN  69  32  25 N14       30.12R
HAYDEN         FAIR      70  28  21 SW10      30.13S
MEEKER         PTSUNNY   65  38  36 NE6       30.14S
MOUNT WERNER   NOT AVBL
STEAMBOAT SPGS FAIR      65  37  34 SE7       30.16F
WALDEN         FAIR      61  30  31 S16G25    30.23S
$$

COZ006>008-011-270100-
...WEST CENTRAL VALLEYS...

CITY           SKY/WX    TMP DP  RH WIND       PRES   REMARKS
GRAND JUNCTION FAIR      77  49  37 CALM      30.04F
MONTROSE       FAIR      75  41  29 NW5       30.13R
EAGLE          MOSUNNY   72  36  26 SW18      30.17S
RIFLE          FAIR      77  36  22 W14       30.07F
DELTA          NOT AVBL
NUCLA          FAIR     N/A N/A N/A N5        30.18R
$$

COZ017>023-064>068-270100-
...SOUTHWEST COLORADO...

CITY           SKY/WX    TMP DP  RH WIND       PRES   REMARKS
DURANGO        FAIR      72  39  30 SW10      30.19S
CORTEZ         FAIR      74  43  32 W8        30.16S
PAGOSA SPRINGS FAIR      65  42  42 E3        30.27F
TELLURIDE      FAIR      55  45  67 S3        30.37S
WOLF CREEK PAS FAIR      43  37  81 SW9       30.54R
$$

COZ009-010-012-014-032>034-037-058>063-270100-
...CENTRAL COLORADO...

CITY           SKY/WX    TMP DP  RH WIND       PRES   REMARKS
ASPEN          FAIR      59  43  55 W3        30.23F
BUENA VISTA    FAIR      66  32  28 N5        30.23F
COPPER MTN     FAIR      50  28  43 NW15      30.49S
BERTHOUD PASS  FAIR      39  27  60 MISG      30.49F
COTTONWOOD PAS FAIR      61  30  31 CALM      30.35S
GUNNISON       CLOUDY    66  37  34 N9        30.25S
KREMMLING      FAIR      61  36  39 N8        30.25S
LEADVILLE      FAIR      56  28  34 W8        30.35F
MONARCH PASS   FAIR      50  30  46 W18G30    30.58F
SALIDA         FAIR      71  35  27 N8        30.26S
SUNLIGHT       FAIR      54  39  58 NE6       30.45S
WILKERSON PASS CLOUDY    50  28  43 W3        30.47S
$$

COZ069>075-270100-
...SAN LUIS VALLEY/SANGRE DE CRISTO MOUNTAINS...

CITY           SKY/WX    TMP DP  RH WIND       PRES   REMARKS
ALAMOSA        FAIR      69  36  29 W9        30.23S
LA VETA PASS   FAIR      55  32  41 SW6       30.39S
SAGUACHE       FAIR      63  39  42 SW3       30.24S
$$

COZ035-036-038>040-270100-
...NORTHERN COLORADO FRONT RANGE...

CITY           SKY/WX    TMP DP  RH WIND       PRES   REMARKS
DENVER INTL AP PTSUNNY   75  39  27 E5        30.07R
DMNS CITY PARK   N/A     74  41  30 E5        30.06S
AURORA         PTSUNNY   77  39  25 NW7       30.09R
FRONT RANGE AP PTSUNNY   75  37  25 NE6       30.09R
ERIE MUNI ARPT FAIR      78  34  20 SW5       30.04F
BOULDER MUN AP FAIR      75  32  20 W6        30.04S
CENTENNIAL     PTSUNNY   75  37  25 N12       30.10R
BROOMFIELD     PTSUNNY   75  41  29 SE6       30.08F
FORT COLLINS   FAIR      79  41  25 E5        30.01S
LONGMONT       FAIR      80  35  19 S8        30.04F
$$

COZ041-046-047-076>085-087-088-270100-
...PIKES PEAK/PALMER DIVIDE AND SOUTHERN FOOTHILLS...

CITY           SKY/WX    TMP DP  RH WIND       PRES   REMARKS
COLO. SPRINGS  FAIR      72  45  37 SE9       30.13F
A. F. ACADEMY  FAIR      68  46  45 S9        30.14R
SCHRIEVER AFB  NOT AVBL
ELLICOTT       NOT AVBL
FALCON         FAIR      70  40  33 S3        30.18F
FORT CARSON    MOSUNNY   70  46  42 SE3       30.10F
LIMON          FAIR      73  48  41 S12G18    30.08S
MONUMENT HILL  PTSUNNY   64  36  34 CALM      30.19R
TRINIDAD       FAIR      74  44  34 SE6       30.10S
$$

COZ042>045-048>051-090-091-270100-
...NORTHEAST COLORADO...

CITY           SKY/WX    TMP DP  RH WIND       PRES   REMARKS
GREELEY ARPT   FAIR      72  52  49 E21G30    30.05R
AKRON          FAIR      70  50  49 NE16      30.08R
BURLINGTON     FAIR      72  53  51 SE20      30.04R
WRAY           NOT AVBL
STERLING       FAIR      68  55  64 E10       30.06S
HOLYOKE        PTSUNNY   63  57  82 E10G17    30.08S
FORT MORGAN    FAIR      67  52  57 N16       30.08R
$$

COZ086-089-092>099-270100-
...SOUTHEAST COLORADO...

CITY           SKY/WX    TMP DP  RH WIND       PRES   REMARKS
PUEBLO         FAIR      79  40  24 NE10      30.03S
LA JUNTA       FAIR      81  48  31 W5        30.02S
LAMAR          FAIR      83  49  30 SW5       29.99R
SPRINGFIELD      N/A     65  61  87 S7        30.06F
$$




USA.gov is the U.S. government's official web portal to all federal, state and local government web resources and services.